Regional Weather Roundup
Issued by NWS

Home | Current Version | Previous Version | Text Only | Print | Product List | Glossary Off
Versions: 1 2 3 4 5 6 7 8 9 10 11 12 13 14 15 16 17 18 19 20 21 22 23 24 25 26 27 28 29 30 31 32 33 34 35 36 37 38 39 40 41 42 43 44 45 46 47 48 49 50

000
ASUS43 KMPX 121101
RWRMN
WEATHER ROUNDUP FOR MINNESOTA
NATIONAL WEATHER SERVICE TWIN CITIES/CHANHASSEN MN
600 AM CDT SAT JUL 12 2014


NOTE: "FAIR" INDICATES FEW OR NO CLOUDS BELOW 12,000 FEET WITH NO
SIGNIFICANT WEATHER AND/OR OBSTRUCTIONS TO VISIBILITY. N/A MEANS
CURRENT SKY AND/OR WEATHER CONDITIONS ARE NOT AVAILABLE.

MNZ060>063-068>070-121200-
   Twin Cities Metro

CITY           SKY/WX    TMP DP  RH WIND       PRES   REMARKS
TWIN CITIES    CLOUDY    70  69  97 CALM      30.01R FOG
ST PAUL        CLOUDY    69  67  93 SE5       30.01R FOG
CRYSTAL        CLOUDY    72  68  87 CALM      29.99R FOG
BLAINE         CLOUDY    72  70  94 CALM      30.01R FOG
LAKEVILLE      CLOUDY    68  66  94 CALM      30.01F FOG
EDEN PRAIRIE   CLOUDY    70  68  93 S5        30.00R FOG
SOUTH ST PAUL  CLOUDY    69  67  94 CALM      30.00F FOG
LAKE ELMO      FAIR      68  66  94 CALM      30.03R FOG
$$
MNZ001>005-007-008-013>017-022>024-027-028-121200-
   Northwest Minnesota

CITY           SKY/WX    TMP DP  RH WIND       PRES   REMARKS
BEMIDJI        PTCLDY    55  53  94 CALM      30.03S
HALLOCK        CLEAR     54  50  87 SW3       30.01S
ROSEAU         CLEAR     54  48  82 CALM      30.01S
WARROAD        CLEAR     54  48  82 CALM      30.02S
THIEF RVR FALL PTCLDY    54  52  94 CALM      30.03R
CROOKSTON      PTCLDY    55  54  94 CALM      30.03S
FOSSTON        PTCLDY    52  48  87 CALM      30.04S
DETROIT LAKES  PTCLDY    61  57  88 CALM      30.05S
MOORHEAD       CLEAR     61  61 100 CALM      30.03F
PARK RAPIDS    MOCLDY    57  55  93 W5        30.03S
$$
MNZ006-009>011-018-025>026-121200-
   North Central Minnesota

CITY           SKY/WX    TMP DP  RH WIND       PRES   REMARKS
BAUDETTE       CLEAR     56  54  93 W3        30.02R
FLAG ISLAND    CLEAR     61  55  82 CALM      29.99S HAZE
INTL FALLS     CLEAR     49  48  97 CALM      30.00R
WASKISH        PTCLDY    55  54  94 CALM      30.02R
BIG FORK       CLEAR     52  50  93 CALM      30.03R
LONGVILLE      MOCLDY    55  55 100 CALM      30.03R
GRAND RAPIDS     N/A     55  54  94 CALM      30.03R VSB 1/4
CRANE LAKE     CLEAR     48  48 100 CALM      30.02R FOG
ORR            CLEAR     54  50  87 CALM      30.00R
COOK           PTCLDY    52  52 100 CALM      30.02R
$$
MNZ012-019>021-037-121200-
   Northeast Minnesota

CITY           SKY/WX    TMP DP  RH WIND       PRES   REMARKS
DULUTH         MOCLDY    62  58  86 NW7       30.01R
ELY            PTCLDY    50  48  93 CALM      30.01R
HIBBING        FOG       50  48  93 CALM      30.02S VSB 3/4
EVELETH        FOG       52  52 100 CALM      30.03R VSB 1/2
DULUTH HARBOR  MOCLDY    68  61  77 N7        30.00R
TWO HARBORS    MOCLDY    61  55  82 NW3       29.98R
SILVER BAY     PTCLDY    61  59  94 CALM      29.98R
GRAND MARAIS     N/A     64  57  78 N13       29.94R
G MARAIS ARPRT PTCLDY    55  52  88 NW5       30.00R
$$
MNZ029>031-032-039>041-046>048-054>057-064-121200-
   West Central Minnesota

CITY           SKY/WX    TMP DP  RH WIND       PRES   REMARKS
FERGUS FALLS   MOCLDY    64  55  72 NE3       30.03S
WHEATON        CLOUDY    63  57  82 N3        30.03F
MORRIS         CLOUDY    66  63  88 N3        30.02R
ALEXANDRIA     CLOUDY    68  56  65 NE7       30.05R
ELBOW LAKE     FAIR      66  59  77 NE6       30.02S
WADENA         MOCLDY    61  57  88 CALM      30.03S
GLENWOOD       CLOUDY    66  59  77 NE8       30.03S
APPLETON       CLOUDY    70  63  78 NE5       30.00S
BENSON         CLOUDY    70  59  68 E7        30.01S
ORTONVILLE     CLOUDY    70  57  64 N6        30.01F
MADISON        CLOUDY    72  64  78 N8        30.01R
WILLMAR        FAIR      72  64  78 NE6       30.01S
$$
MNZ033>034-036-042>043-049>051-058-059-121200-
   Central Minnesota

CITY           SKY/WX    TMP DP  RH WIND       PRES   REMARKS
ST CLOUD       CLOUDY    68  66  93 CALM      30.00S FOG
SAUK CENTRE    FAIR      65  59  80 CALM      30.03S
PAYNESVILLE    CLOUDY    65  62  87 NW5       30.02S
AITKIN         MOCLDY    57  54  88 CALM      30.01S HAZE
PINE RIVER     MOCLDY    57  57 100 CALM      30.06S
BRAINERD       MOCLDY    65  59  81 CALM      30.03S
STAPLES        CLOUDY    61  57  88 CALM      30.03S
LONG PRAIRIE   CLOUDY    63  57  82 N5        30.04R
LITTLE FALLS   CLOUDY    63  61  94 CALM      30.02S
LITCHFIELD     CLOUDY    73  73 100 CALM      30.01S
BUFFALO        CLOUDY    69  67  93 CALM      30.01S FOG
MAPLE LAKE     FOG       69  69  99 CALM      30.01S VSB 1/2
$$
MNZ037-044-045-052-053-121200-
   East Central Minnesota

CITY           SKY/WX    TMP DP  RH WIND       PRES   REMARKS
PRINCETON      FOG       68  66  94 CALM      30.01S VSB 1/4
MORA           FOG       63  63 100 CALM      30.03R VSB 1/2
CAMBRIDGE      HAZE      70  63  78 CALM      29.99S VSB<1/4
RUSH CITY      CLOUDY    65  64  96 CALM      30.01S FOG
MOOSE LAKE     FOG       57  55  94 CALM      30.00R VSB 3/4
HINCKLEY       FOG       59  59 100 CALM      30.01S VSB<1/4
CLOQUET        MOCLDY    61  57  88 NW6       30.02R
MCGREGOR       MOCLDY    57  55  94 CALM      30.03R
$$
MNZ071>073-080-081-089-090-097-098-121200-
   Southwest Minnesota

CITY           SKY/WX    TMP DP  RH WIND       PRES   REMARKS
MONTEVIDEO     CLOUDY    72  63  73 E7        30.01S
GRANITE FALLS  FOG       71  69  95 CALM      30.01R VSB 1/2
CANBY          CLOUDY    69  63  80 N6        30.01F
MARSHALL       CLOUDY    73  70  88 W3        29.98F
REDWOOD FALLS  CLOUDY    72  71  97 SW8       29.99S FOG
OLIVIA         CLOUDY    72  70  94 CALM      30.01R FOG
PIPESTONE      CLOUDY    72  70  94 S5        30.01F FOG
WINDOM         CLOUDY    72  70  94 SW6       30.03F FOG
WORTHINGTON    CLOUDY    73  70  88 W3        30.04F
JACKSON        CLOUDY    72  68  88 SW8       30.05F FOG
TRACY          CLOUDY    72  69  92 N17       30.01S
SLAYTON        CLOUDY    70  69  96 CALM      30.02F FOG
$$
MNZ065>067-074>077-082>085-091>093-121200-
   South Central Minnesota

CITY           SKY/WX    TMP DP  RH WIND       PRES   REMARKS
MANKATO        CLOUDY    70  66  88 S7        30.03S
NEW ULM        CLOUDY    72  72 100 SW6       30.01S FOG
ST JAMES       CLOUDY    72  70  94 S5        30.03S FOG
FAIRMONT       CLOUDY    72  66  83 S8        30.03F
GLENCOE        CLOUDY    71  68  90 CALM      30.00S FOG
FARIBAULT      CLOUDY    72  66  83 SW5       30.03S HAZE
OWATONNA       CLOUDY    70  66  88 SW8       30.04S FOG
WASECA         CLOUDY    68  64  88 SW8       30.06R FOG
ALBERT LEA     CLOUDY    72  70  94 SW5       30.05  FOG
$$
MNZ078>079-086>088-094>096-121200-
   Southeast Minnesota

CITY           SKY/WX    TMP DP  RH WIND       PRES   REMARKS
ROCHESTER      CLOUDY    68  66  93 SW6       30.05F FOG
RED WING       CLOUDY    68  66  94 CALM      30.01S FOG
STANTON        CLOUDY    69  66  91 S5        30.01S FOG
DODGE CENTER   CLOUDY    70  66  88 SW6       30.04F FOG
WINONA         CLOUDY    70  66  88 CALM      30.03R
AUSTIN         CLOUDY    70  68  94 SW6       30.05F FOG
PRESTON        CLOUDY    69  68  97 W6        30.05F FOG
$$
ABBREVIATIONS USED IN REMARKS
   TC - TEMPERATURES IN CELSIUS
  WCI - WIND CHILL INDEX
   HX - HEAT INDEX
  VSB - VISIBILITY
$$


USA.gov is the U.S. government's official web portal to all federal, state and local government web resources and services.